N638ZB KMVY-KMHT

Flight info

Callsign N638ZB
Flight time 0h 41m
Altitude 14000
Route LFV SCUPP PEASE
Aircraft SF50/L-BDGRSWY/LB2U2

Departure

Time 2026-04-25 22:26
Airport Martha's Vineyard Airport (KMVY)

Arrival

Time 2026-04-25 23:08
Airport Manchester-Boston Regional Airport (KMHT)
Time Latitude Longitude Altitude Speed Heading
2026-04-25 22:12 41.38909 -70.61387 61 ft 0 kts 319°
2026-04-25 22:16 41.38910 -70.61388 61 ft 0 kts 321°
2026-04-25 22:16 41.38911 -70.61389 61 ft 0 kts 321°
2026-04-25 22:21 41.38915 -70.61394 61 ft 3 kts 321°
2026-04-25 22:21 41.38916 -70.61449 61 ft 11 kts 240°
2026-04-25 22:22 41.38864 -70.61515 61 ft 8 kts 220°
2026-04-25 22:22 41.38829 -70.61554 58 ft 6 kts 220°
2026-04-25 22:22 41.38798 -70.61590 58 ft 7 kts 222°
2026-04-25 22:22 41.38761 -70.61636 61 ft 8 kts 220°
2026-04-25 22:23 41.38715 -70.61688 59 ft 9 kts 221°
2026-04-25 22:23 41.38660 -70.61731 60 ft 8 kts 174°
2026-04-25 22:23 41.38642 -70.61729 60 ft 0 kts 178°
2026-04-25 22:23 41.38626 -70.61734 60 ft 8 kts 205°
2026-04-25 22:24 41.38621 -70.61738 60 ft 0 kts 212°
2026-04-25 22:24 41.38601 -70.61760 57 ft 5 kts 225°
2026-04-25 22:25 41.38591 -70.61789 56 ft 2 kts 274°
2026-04-25 22:25 41.38600 -70.61817 60 ft 8 kts 309°
2026-04-25 22:25 41.38635 -70.61873 61 ft 8 kts 311°
2026-04-25 22:25 41.38688 -70.61904 62 ft 12 kts 34°
2026-04-25 22:26 41.38893 -70.61672 63 ft 72 kts 41°
2026-04-25 22:26 41.39418 -70.61066 128 ft 120 kts 39°
2026-04-25 22:26 41.40136 -70.60290 461 ft 146 kts 37°
2026-04-25 22:26 41.40951 -70.59531 1123 ft 139 kts 34°
2026-04-25 22:27 41.41761 -70.58804 1676 ft 141 kts 37°
2026-04-25 22:27 41.42584 -70.58055 2132 ft 151 kts 36°
2026-04-25 22:27 41.43464 -70.57303 2733 ft 147 kts 33°
2026-04-25 22:27 41.44317 -70.56614 3410 ft 143 kts 27°
2026-04-25 22:28 41.45193 -70.55934 4045 ft 149 kts 30°
2026-04-25 22:28 41.46114 -70.55126 4533 ft 162 kts 32°
2026-04-25 22:28 41.47039 -70.54286 5228 ft 161 kts 32°
2026-04-25 22:28 41.47990 -70.53412 5714 ft 170 kts 33°
2026-04-25 22:29 41.48974 -70.52515 6308 ft 173 kts 33°
2026-04-25 22:29 41.49981 -70.51595 6836 ft 178 kts 33°
2026-04-25 22:29 41.51005 -70.50656 7386 ft 179 kts 32°
2026-04-25 22:30 41.53084 -70.48753 8513 ft 183 kts 31°
2026-04-25 22:30 41.54132 -70.47789 9097 ft 184 kts 31°
2026-04-25 22:30 41.55192 -70.46817 9677 ft 186 kts 30°
2026-04-25 22:30 41.55898 -70.46168 10053 ft 187 kts 30°
2026-04-25 22:31 41.57330 -70.44851 10749 ft 189 kts 29°
2026-04-25 22:31 41.58417 -70.43852 11273 ft 191 kts 28°
2026-04-25 22:31 41.59513 -70.42845 11790 ft 192 kts 28°
2026-04-25 22:31 41.60619 -70.41831 12298 ft 193 kts 28°
2026-04-25 22:32 41.61732 -70.40805 12803 ft 195 kts 27°
2026-04-25 22:32 41.62853 -70.39775 13305 ft 197 kts 27°
2026-04-25 22:32 41.63986 -70.38733 13800 ft 198 kts 26°
2026-04-25 22:32 41.65155 -70.37663 13995 ft 214 kts 27°
2026-04-25 22:33 41.66448 -70.36481 14010 ft 234 kts 27°
2026-04-25 22:33 41.67810 -70.35216 14006 ft 248 kts 28°
2026-04-25 22:33 41.69258 -70.33873 14004 ft 257 kts 28°
2026-04-25 22:33 41.70748 -70.32494 14004 ft 264 kts 28°
2026-04-25 22:34 41.72274 -70.31086 13990 ft 269 kts 28°
2026-04-25 22:34 41.73828 -70.29651 13989 ft 274 kts 29°
2026-04-25 22:34 41.75402 -70.28196 13991 ft 277 kts 29°
2026-04-25 22:34 41.76999 -70.26716 13991 ft 280 kts 29°
2026-04-25 22:35 41.78606 -70.25230 13989 ft 282 kts 29°
2026-04-25 22:35 41.80226 -70.23728 13990 ft 284 kts 29°
2026-04-25 22:35 41.81860 -70.22212 13991 ft 286 kts 29°
2026-04-25 22:35 41.83501 -70.20691 13991 ft 288 kts 29°
2026-04-25 22:36 41.85161 -70.19149 13991 ft 292 kts 29°
2026-04-25 22:36 41.86841 -70.17589 14004 ft 295 kts 29°
2026-04-25 22:36 41.88513 -70.16036 14014 ft 297 kts 30°
2026-04-25 22:36 41.90216 -70.14454 14003 ft 297 kts 30°
2026-04-25 22:37 41.91912 -70.12870 14002 ft 296 kts 30°
2026-04-25 22:37 41.93606 -70.11295 14002 ft 296 kts 30°
2026-04-25 22:37 41.95298 -70.09720 14002 ft 296 kts 30°
2026-04-25 22:37 41.96987 -70.08142 14002 ft 295 kts 30°
2026-04-25 22:38 41.98678 -70.06579 14003 ft 294 kts 28°
2026-04-25 22:38 42.00510 -70.05399 13998 ft 291 kts 15°
2026-04-25 22:38 42.02473 -70.04785 13991 ft 288 kts
2026-04-25 22:38 42.04456 -70.04748 13991 ft 283 kts 352°
2026-04-25 22:39 42.06372 -70.05243 13997 ft 279 kts 343°
2026-04-25 22:39 42.08269 -70.05878 13997 ft 282 kts 344°
2026-04-25 22:39 42.10176 -70.06489 13998 ft 282 kts 344°
2026-04-25 22:39 42.12062 -70.07103 14002 ft 282 kts 344°
2026-04-25 22:40 42.13975 -70.07734 13999 ft 282 kts 344°
2026-04-25 22:40 42.15885 -70.08359 13995 ft 283 kts 344°
2026-04-25 22:40 42.17799 -70.08986 13995 ft 282 kts 344°
2026-04-25 22:40 42.19709 -70.09614 13991 ft 282 kts 344°
2026-04-25 22:41 42.21623 -70.10241 13993 ft 282 kts 344°
2026-04-25 22:41 42.23532 -70.10870 13992 ft 282 kts 344°
2026-04-25 22:41 42.24798 -70.11288 13992 ft 282 kts 344°
2026-04-25 22:41 42.26706 -70.11915 13997 ft 282 kts 344°
2026-04-25 22:42 42.28619 -70.12545 13998 ft 283 kts 344°
2026-04-25 22:42 42.31155 -70.13382 13997 ft 283 kts 344°
2026-04-25 22:42 42.32447 -70.13809 13997 ft 283 kts 344°
2026-04-25 22:42 42.34360 -70.14438 13997 ft 283 kts 344°
2026-04-25 22:43 42.36254 -70.15062 13997 ft 283 kts 344°
2026-04-25 22:43 42.38165 -70.15694 14004 ft 283 kts 344°
2026-04-25 22:43 42.40076 -70.16324 13998 ft 283 kts 344°
2026-04-25 22:43 42.41987 -70.16957 13997 ft 283 kts 344°
2026-04-25 22:44 42.43899 -70.17592 13998 ft 283 kts 344°
2026-04-25 22:44 42.45810 -70.18223 13997 ft 283 kts 344°
2026-04-25 22:44 42.47722 -70.18858 13994 ft 283 kts 344°
2026-04-25 22:44 42.49632 -70.19492 14003 ft 283 kts 344°
2026-04-25 22:45 42.51543 -70.20124 13994 ft 283 kts 344°
2026-04-25 22:45 42.53456 -70.20758 13988 ft 283 kts 344°
2026-04-25 22:45 42.55369 -70.21395 13989 ft 283 kts 344°
2026-04-25 22:45 42.57284 -70.22030 13986 ft 283 kts 344°
2026-04-25 22:46 42.59176 -70.22751 13979 ft 282 kts 338°
2026-04-25 22:46 42.60908 -70.23973 13977 ft 281 kts 326°
2026-04-25 22:46 42.62420 -70.25646 13987 ft 280 kts 316°
2026-04-25 22:46 42.63850 -70.27440 13977 ft 280 kts 317°
2026-04-25 22:47 42.65298 -70.29215 13977 ft 280 kts 317°
2026-04-25 22:47 42.66740 -70.30996 13980 ft 280 kts 317°
2026-04-25 22:47 42.68157 -70.32758 13974 ft 280 kts 317°
2026-04-25 22:47 42.69597 -70.34542 13978 ft 280 kts 317°
2026-04-25 22:48 42.71034 -70.36325 13972 ft 280 kts 317°
2026-04-25 22:48 42.72468 -70.38108 13972 ft 280 kts 317°
2026-04-25 22:48 42.73905 -70.39893 13972 ft 280 kts 317°
2026-04-25 22:48 42.75341 -70.41681 13972 ft 280 kts 317°
2026-04-25 22:49 42.76777 -70.43471 13975 ft 280 kts 317°
2026-04-25 22:49 42.78214 -70.45258 13975 ft 280 kts 317°
2026-04-25 22:49 42.79652 -70.47053 13975 ft 280 kts 317°
2026-04-25 22:49 42.81091 -70.48848 13970 ft 280 kts 317°
2026-04-25 22:50 42.82529 -70.50640 13970 ft 280 kts 317°
2026-04-25 22:50 42.83964 -70.52432 13970 ft 280 kts 317°
2026-04-25 22:50 42.85401 -70.54229 13963 ft 280 kts 317°
2026-04-25 22:50 42.86837 -70.56024 13966 ft 280 kts 317°
2026-04-25 22:51 42.88273 -70.57821 13974 ft 280 kts 317°
2026-04-25 22:51 42.89710 -70.59621 13964 ft 280 kts 317°
2026-04-25 22:51 42.91129 -70.61401 13960 ft 280 kts 317°
2026-04-25 22:51 42.92567 -70.63203 13960 ft 280 kts 317°
2026-04-25 22:52 42.94005 -70.65007 13960 ft 280 kts 317°
2026-04-25 22:52 42.95440 -70.66811 13960 ft 280 kts 317°
2026-04-25 22:52 42.96879 -70.68615 13965 ft 280 kts 317°
2026-04-25 22:52 42.97847 -70.69832 13965 ft 280 kts 317°
2026-04-25 22:53 42.99747 -70.72224 13965 ft 280 kts 317°
2026-04-25 22:53 43.01181 -70.74026 13960 ft 280 kts 317°
2026-04-25 22:53 43.02615 -70.75834 13960 ft 280 kts 317°
2026-04-25 22:53 43.04047 -70.77640 13960 ft 280 kts 317°
2026-04-25 22:54 43.05478 -70.79447 13960 ft 280 kts 317°
2026-04-25 22:54 43.06850 -70.81178 12989 ft 261 kts 317°
2026-04-25 22:54 43.08177 -70.82853 11489 ft 260 kts 317°
2026-04-25 22:54 43.09491 -70.84516 10090 ft 255 kts 317°
2026-04-25 22:55 43.10752 -70.86183 8494 ft 252 kts 315°
2026-04-25 22:55 43.11889 -70.87976 6987 ft 250 kts 302°
2026-04-25 22:55 43.12485 -70.90213 5489 ft 251 kts 282°
2026-04-25 22:55 43.12517 -70.92535 4207 ft 241 kts 261°
2026-04-25 22:56 43.11883 -70.94539 3764 ft 220 kts 240°
2026-04-25 22:56 43.11074 -70.96385 3765 ft 221 kts 240°
2026-04-25 22:56 43.10306 -70.98125 3754 ft 210 kts 240°
2026-04-25 22:56 43.09557 -70.99827 3752 ft 207 kts 240°
2026-04-25 22:57 43.08816 -71.01516 3754 ft 207 kts 240°
2026-04-25 22:57 43.08089 -71.03212 3754 ft 205 kts 244°
2026-04-25 22:57 43.07950 -71.05112 3751 ft 205 kts 281°
2026-04-25 22:57 43.08291 -71.07016 3764 ft 206 kts 282°
2026-04-25 22:58 43.08378 -71.08969 3761 ft 207 kts 267°
2026-04-25 22:58 43.08208 -71.10896 3759 ft 206 kts 262°
2026-04-25 22:58 43.08027 -71.12780 3337 ft 196 kts 263°
2026-04-25 22:58 43.07885 -71.14664 2442 ft 202 kts 262°
2026-04-25 22:59 43.07746 -71.16553 2062 ft 191 kts 261°
2026-04-25 22:59 43.07610 -71.18323 2054 ft 182 kts 260°
2026-04-25 22:59 43.07479 -71.20010 2044 ft 176 kts 261°
2026-04-25 22:59 43.07347 -71.21656 2054 ft 174 kts 259°
2026-04-25 23:00 43.07215 -71.23315 2049 ft 177 kts 263°
2026-04-25 23:00 43.07098 -71.24990 2069 ft 177 kts 262°
2026-04-25 23:00 43.06963 -71.26651 2050 ft 171 kts 261°
2026-04-25 23:00 43.06840 -71.28179 2035 ft 154 kts 260°
2026-04-25 23:01 43.06730 -71.29589 2028 ft 146 kts 261°
2026-04-25 23:01 43.06624 -71.30952 2093 ft 145 kts 259°
2026-04-25 23:01 43.06512 -71.32348 2100 ft 150 kts 261°
2026-04-25 23:01 43.06398 -71.33777 2102 ft 152 kts 262°
2026-04-25 23:02 43.06288 -71.35189 2112 ft 149 kts 262°
2026-04-25 23:02 43.06176 -71.36603 2109 ft 149 kts 260°
2026-04-25 23:02 43.06066 -71.38000 2105 ft 148 kts 260°
2026-04-25 23:02 43.05955 -71.39393 2103 ft 148 kts 261°
2026-04-25 23:03 43.05842 -71.40798 2101 ft 149 kts 260°
2026-04-25 23:03 43.05731 -71.42214 2101 ft 150 kts 261°
2026-04-25 23:03 43.05623 -71.43629 2114 ft 146 kts 261°
2026-04-25 23:03 43.05513 -71.44979 2106 ft 141 kts 260°
2026-04-25 23:04 43.05403 -71.46321 2103 ft 142 kts 261°
2026-04-25 23:04 43.05314 -71.47207 2102 ft 141 kts 255°
2026-04-25 23:04 43.04601 -71.48629 2099 ft 135 kts 215°
2026-04-25 23:04 43.03745 -71.49141 2105 ft 135 kts 189°
2026-04-25 23:05 43.02831 -71.49026 2099 ft 137 kts 158°
2026-04-25 23:05 43.01931 -71.48519 1997 ft 140 kts 159°
2026-04-25 23:05 43.01035 -71.48023 1801 ft 137 kts 157°
2026-04-25 23:05 43.00171 -71.47528 1607 ft 132 kts 157°
2026-04-25 23:06 42.99341 -71.47023 1410 ft 132 kts 156°
2026-04-25 23:06 42.98502 -71.46526 1226 ft 129 kts 156°
2026-04-25 23:06 42.97671 -71.46034 1032 ft 133 kts 157°
2026-04-25 23:06 42.96827 -71.45530 839 ft 132 kts 156°
2026-04-25 23:07 42.95970 -71.45025 661 ft 132 kts 156°
2026-04-25 23:07 42.95172 -71.44570 495 ft 119 kts 154°
2026-04-25 23:07 42.94424 -71.44106 337 ft 121 kts 155°
2026-04-25 23:07 42.93694 -71.43673 223 ft 103 kts 155°
2026-04-25 23:08 42.93235 -71.43394 229 ft 29 kts 157°
2026-04-25 23:08 42.93067 -71.43291 231 ft 24 kts 153°
2026-04-25 23:08 42.92927 -71.43206 235 ft 21 kts 156°
2026-04-25 23:08 42.92798 -71.43128 235 ft 18 kts 149°
2026-04-25 23:09 42.92775 -71.43029 236 ft 9 kts 66°
2026-04-25 23:09 42.92779 -71.43018 236 ft 0 kts 57°
2026-04-25 23:09 42.92797 -71.43004 236 ft 11 kts 35°
2026-04-25 23:09 42.92862 -71.43005 236 ft 9 kts 18°
2026-04-25 23:10 42.92905 -71.42955 238 ft 7 kts 69°
2026-04-25 23:10 42.92916 -71.42917 235 ft 0 kts 72°